Simultaneous Nadir Overpasses (SNOs) Predictions

Prediction of SNOs between GOES-15 and METOP-A Satellite Orbit:

Table of predicted SNOs for the next 14.0 days since TLE Epoch: 1/30/2016
Index Date Time (GOES-15) GOES-15 Lat,Lon METOP-A Lat,Lon Distance(km) Time Diff (sec)
1 01/30/2016 18:13:15 0.02,-135.22 -0.95,-130.90 492.12 80
2 02/01/2016 06:32:16 -0.03,-135.26 -0.08,-135.49 27.02 80
3 02/03/2016 18:30:29 0.03,-135.28 -0.03,-135.06 24.81 80
4 02/05/2016 06:49:29 -0.03,-135.31 -1.00,-139.65 494.89 80
5 02/06/2016 06:26:09 -0.03,-135.32 0.11,-134.66 74.92 80
6 02/07/2016 18:45:01 0.04,-135.30 0.93,-139.21 445.38 80
7 02/08/2016 18:27:02 0.04,-135.31 -0.24,-134.22 124.50 80
8 02/10/2016 06:46:02 -0.04,-135.34 -0.80,-138.82 396.13 80
9 02/11/2016 06:22:43
